Wind_Speed
14 15 15 16 16 16 17 17 17 17 17 17 17 17 17 18 18 17 17 17 16 16 16 15 15 15 15 16 18 20 22 22 22 21 20 20 20 17 14 13 13 13 13 12 11 10 10 10 10 8 8 7 6 5 4 4 4 6 7 6 5 5 3 2 5 10 11 9 13 13 10 10 12 11 9 10 8 8 11 10 8 9 7 4 6 10 11 9
14 15 15 16 16 17 17 17 17 18 18 17 17 17 17 18 18 19 19 18 18 18 18 17 17 17 17 17 17 19 21 23 23 22 22 21 20 19 17 15 15 15 14 13 13 12 12 12 11 10 9 8 7 5 4 4 6 6 8 8 7 6 5 5 9 10 10 11 14 15 11 9 11 12 10 10 10 8 9 11 9 9 8 4 5 10 11 9
14 15 16 16 17 17 17 17 17 17 17 17 17 17 17 18 19 19 20 20 20 20 19 19 19 19 19 19 18 19 21 22 23 23 23 22 21 20 19 17 16 16 15 14 14 14 14 13 12 12 11 10 9 8 5 5 7 7 8 8 8 8 7 6 11 11 10 10 12 15 11 9 11 10 9 9 9 8 8 10 10 10 9 5 6 10 10 9
15 15 16 16 17 17 17 16 16 17 17 17 17 17 17 18 18 19 20 20 21 21 21 21 21 21 21 21 20 20 20 22 24 24 24 24 23 21 20 19 18 17 17 16 16 16 15 14 13 13 13 12 11 10 8 7 7 9 8 7 9 9 9 8 10 14 12 10 12 15 12 10 11 10 9 9 9 10 9 8 9 12 10 7 8 10 10 10
16 16 16 16 17 17 17 17 16 16 16 17 17 17 17 17 18 19 20 21 21 22 22 22 23 23 23 23 23 22 22 22 24 25 25 25 24 23 22 21 18 18 18 18 17 17 16 15 14 14 14 14 13 12 10 7 7 10 10 7 9 9 9 8 10 15 13 11 12 15 12 11 11 10 9 8 8 10 10 8 8 12 11 9 9 10 10 10
18 17 17 17 17 17 17 17 16 16 16 16 16 16 17 17 18 19 20 21 22 22 23 23 24 24 25 25 25 24 24 24 25 25 26 26 26 24 23 22 20 19 19 19 19 18 17 16 16 15 15 15 15 14 11 8 8 11 11 9 10 8 7 8 12 15 15 14 13 15 12 11 11 8 7 6 7 9 9 9 9 11 11 11 10 10 11 11
19 19 19 18 18 18 17 17 16 16 15 15 15 15 16 17 18 18 19 21 22 23 24 24 25 26 26 27 27 27 26 25 25 26 27 27 27 26 25 23 21 20 20 21 20 20 19 17 17 17 16 16 16 15 13 9 10 12 11 11 10 7 7 8 15 16 18 17 16 16 12 10 10 8 7 6 7 9 9 9 10 11 11 11 10 9 10 12
20 20 20 19 19 18 17 17 17 16 16 15 15 15 16 16 17 18 19 20 21 23 24 25 26 26 27 27 28 29 28 28 27 27 27 28 28 27 26 25 23 22 21 22 22 21 20 19 18 18 17 16 15 15 13 10 11 13 12 12 11 9 11 9 18 21 17 18 20 17 12 11 11 10 10 9 8 9 9 9 11 12 11 10 9 9 10 12
21 21 20 20 19 18 17 17 17 17 16 16 16 15 15 16 17 18 19 20 21 22 24 25 26 27 27 28 29 31 31 30 29 28 29 29 29 29 28 26 25 23 22 22 22 21 21 20 19 19 19 17 15 14 12 10 12 13 13 13 10 10 10 8 15 21 16 18 23 18 14 13 11 10 10 9 9 9 10 10 10 12 11 10 9 8 9 11
22 21 21 20 19 19 18 18 17 17 16 16 16 15 15 16 16 17 18 19 20 21 23 24 26 27 28 28 30 31 32 31 31 30 30 30 30 30 29 28 27 25 23 22 22 23 22 21 20 20 21 18 16 15 12 11 13 13 12 12 8 7 5 6 10 18 18 18 23 19 14 14 11 10 10 8 8 9 11 10 10 11 11 10 9 8 8 9
22 22 21 21 20 19 18 18 18 17 17 16 16 15 15 15 16 16 17 18 19 21 22 24 25 27 27 28 29 30 32 32 33 32 31 31 31 32 31 30 28 26 25 23 24 24 22 21 21 22 22 19 17 16 12 11 13 13 11 11 7 6 5 5 9 17 19 19 23 19 13 15 13 10 11 10 9 9 11 11 10 11 11 11 9 8 9 9
23 23 22 21 20 19 19 18 18 17 17 16 16 16 16 16 16 16 17 17 18 20 21 23 24 26 26 27 28 29 31 32 34 34 33 32 32 33 33 32 29 27 26 26 26 25 23 23 22 22 22 20 18 16 13 12 14 14 11 10 7 5 6 5 11 18 19 20 22 19 14 15 12 8 8 10 10 10 10 12 11 11 11 11 9 8 9 9
24 24 23 22 21 20 19 18 18 18 18 17 17 17 16 16 16 16 16 17 18 19 19 20 21 23 23 24 24 26 27 31 34 34 34 34 33 33 34 34 31 29 29 29 28 26 24 23 22 23 22 20 18 16 13 13 14 14 11 10 8 6 4 4 10 17 18 18 19 18 16 13 10 7 7 9 11 11 10 11 12 12 11 11 10 8 9 9
25 24 23 22 21 20 19 18 18 18 18 18 18 17 17 16 16 15 15 16 17 17 18 18 18 19 20 20 21 21 23 27 31 33 35 35 34 34 34 35 34 31 30 31 29 26 24 22 22 23 22 21 19 16 15 14 14 13 10 9 10 8 5 3 7 13 18 17 18 20 18 14 9 7 9 10 11 12 11 11 11 11 12 11 11 8 8 9
24 24 23 21 20 20 19 19 19 19 18 18 18 18 17 17 16 15 14 14 15 16 17 17 17 18 19 19 19 20 21 23 27 30 33 35 35 34 35 36 36 35 33 33 31 27 24 23 22 22 22 21 19 17 16 16 14 13 10 8 9 9 5 3 6 13 18 18 19 20 18 15 10 6 9 11 11 10 10 12 11 11 12 11 11 9 8 9
24 23 22 21 20 20 20 20 20 19 19 18 18 18 18 17 15 14 14 13 13 14 15 16 17 17 18 19 19 19 20 23 25 26 30 35 36 35 36 37 39 38 35 34 32 28 25 24 22 21 21 20 19 18 17 17 15 13 11 9 9 8 5 3 2 10 17 17 16 17 16 16 10 7 9 10 11 10 9 11 12 11 12 12 11 10 9 9
23 23 21 21 21 21 21 21 20 20 19 18 18 18 17 16 15 14 13 13 12 13 14 15 16 17 17 18 18 18 20 22 25 26 27 32 35 36 36 37 39 40 38 35 33 30 28 25 22 20 21 20 19 18 16 16 15 14 13 11 9 7 5 3 2 5 11 10 12 15 16 15 11 9 10 11 12 11 10 11 12 12 12 11 11 10 10 10
23 22 21 21 21 21 22 21 21 20 19 18 18 18 17 16 15 14 13 12 12 12 13 14 15 16 17 18 17 18 19 21 24 26 27 29 34 36 36 37 40 42 41 38 34 32 30 27 24 22 21 18 17 17 16 15 15 15 14 12 10 7 5 4 4 6 6 5 9 13 14 13 12 11 11 12 13 12 12 13 13 13 12 11 10 10 10 11
23 22 21 21 21 22 22 21 20 20 19 19 19 18 17 16 15 13 12 11 11 11 12 13 14 16 17 17 17 17 17 19 22 24 26 28 31 34 35 37 39 41 42 39 36 34 32 29 27 24 19 17 19 20 18 17 16 16 15 12 11 9 7 5 5 6 5 4 7 11 12 13 14 14 12 10 11 12 13 14 14 13 13 12 12 11 11 11
22 22 21 21 21 21 21 21 21 20 20 19 18 17 16 16 15 13 11 10 10 11 12 13 13 15 16 16 16 16 16 17 19 21 23 25 29 32 33 36 38 40 42 40 38 36 34 32 28 23 18 19 23 22 19 18 17 17 15 13 11 11 9 8 7 5 5 5 5 7 10 13 16 16 13 10 10 11 12 13 14 13 13 14 13 13 12 11
22 22 21 21 21 22 22 22 21 20 19 18 17 16 16 15 14 12 11 11 10 10 12 13 13 13 13 14 14 14 15 15 17 19 21 23 27 31 31 33 35 37 39 41 40 38 37 34 28 24 23 25 26 22 19 17 16 16 16 13 11 11 11 10 8 5 3 4 4 4 6 11 16 17 14 12 12 11 11 13 14 14 14 15 14 14 13 12
22 21 21 21 21 22 22 21 20 19 18 18 17 16 15 15 14 13 12 11 11 10 11 10 10 10 10 10 11 12 12 13 15 17 19 21 25 29 30 31 32 35 38 41 41 40 38 33 28 26 28 28 26 22 20 17 15 15 16 13 11 11 11 11 8 4 2 3 3 4 4 6 12 17 17 16 15 14 13 14 15 15 15 14 14 14 14 13
22 22 21 21 21 22 21 20 20 19 19 18 17 16 15 14 14 14 13 12 12 11 10 8 7 7 7 8 9 9 9 11 13 14 16 19 23 27 28 29 31 35 37 39 40 39 35 31 29 29 31 30 26 23 21 19 16 16 16 14 12 11 11 12 9 2 1 2 3 4 5 3 4 11 17 19 18 16 15 15 16 17 17 16 15 14 15 15
22 22 21 21 21 21 21 20 20 20 19 18 17 16 15 14 14 13 13 13 12 11 11 9 7 5 6 7 8 8 8 10 11 12 15 18 22 24 26 30 34 35 35 35 36 36 33 33 34 33 32 30 27 25 24 21 18 17 17 14 12 12 11 12 11 3 1 4 4 4 4 4 3 4 10 16 20 19 17 17 17 18 19 18 16 15 15 15
22 22 21 21 21 21 20 20 21 20 19 18 16 15 13 12 12 11 12 12 11 10 9 9 7 4 5 6 6 6 7 8 8 9 13 16 21 24 26 30 34 34 34 33 34 36 36 37 37 35 33 30 29 26 24 23 20 17 17 16 12 11 11 11 10 7 7 7 6 5 5 7 7 5 7 10 16 21 21 19 18 18 19 18 18 17 16 15
22 22 21 21 21 21 20 20 21 20 18 17 15 14 12 10 10 9 10 10 8 7 6 5 5 5 5 6 6 5 6 6 7 8 12 15 19 24 26 30 33 34 35 35 35 37 38 37 37 36 34 32 31 28 25 23 21 18 18 16 12 11 10 10 9 9 9 8 6 6 5 7 9 8 9 10 12 19 24 23 20 19 18 17 18 18 17 15
21 22 21 21 21 21 20 20 20 19 18 16 14 13 12 11 11 11 10 8 6 5 3 2 3 4 3 5 5 5 4 5 7 9 11 14 18 23 25 29 32 35 36 36 36 37 38 36 36 35 34 34 32 29 25 23 21 20 20 18 14 11 11 11 11 10 9 8 7 6 5 6 8 8 9 10 11 16 23 25 22 19 17 16 16 18 18 16
21 22 21 21 21 21 20 19 19 18 17 16 14 13 13 13 13 13 13 9 6 4 3 2 4 4 4 2 3 4 3 4 7 10 12 13 17 23 25 27 31 34 35 35 34 36 37 36 36 35 34 34 31 28 25 23 22 21 21 21 18 15 14 13 14 13 12 10 8 7 6 6 7 7 8 9 9 10 16 23 22 18 16 16 15 17 18 18
21 21 21 20 20 20 19 18 17 17 16 15 14 13 14 14 14 15 13 8 6 5 2 2 3 6 8 5 1 1 2 4 7 10 12 13 16 22 24 24 28 31 32 33 33 34 36 36 35 35 35 33 29 27 26 25 24 25 24 23 21 19 19 16 15 17 15 13 10 8 8 7 7 6 6 6 5 3 5 14 17 17 18 18 17 16 18 19
21 21 21 20 19 19 18 17 17 16 16 15 14 14 14 14 15 14 10 6 5 5 5 3 4 7 9 8 4 1 2 3 7 10 12 13 17 21 22 22 25 28 30 31 32 33 33 34 34 35 35 33 30 29 29 28 27 27 26 24 23 22 22 19 19 20 18 14 11 8 8 8 8 7 5 3 3 2 2 6 8 12 18 22 21 19 18 18
21 21 20 19 18 18 18 16 15 15 15 15 14 14 14 14 14 12 7 4 3 4 6 7 8 9 10 10 7 4 4 3 6 10 13 14 17 19 19 20 23 25 27 29 30 32 33 32 33 34 33 33 32 30 30 31 30 28 26 24 25 24 22 20 18 18 17 13 11 9 9 9 8 8 7 5 3 3 3 5 7 10 15 21 23 22 19 18
21 21 20 19 18 18 18 16 15 14 14 14 14 13 13 13 13 11 7 4 2 5 6 9 10 10 11 11 9 6 6 7 7 10 13 14 15 17 19 21 23 23 26 29 30 31 33 33 33 33 33 33 33 32 32 32 31 29 27 26 26 24 22 20 15 12 12 12 10 9 8 8 8 8 10 10 8 5 5 6 7 9 12 20 24 22 20 18
21 21 20 19 18 18 17 17 16 14 13 13 12 11 12 13 12 11 8 5 4 6 6 9 10 10 11 11 10 8 7 10 12 12 14 15 17 19 20 23 23 23 25 28 29 31 33 34 34 33 33 34 35 34 34 33 30 30 30 29 28 26 23 21 18 13 12 12 12 11 9 9 9 8 8 10 10 7 6 6 6 6 7 18 24 22 20 18
20 21 20 20 19 18 17 17 16 14 12 11 10 10 10 11 10 9 7 5 4 5 7 8 8 8 10 11 12 10 8 11 14 15 17 19 19 20 22 23 22 21 23 24 27 31 33 33 33 33 34 34 34 34 32 32 31 29 30 29 27 26 23 21 20 18 16 16 16 15 13 10 9 9 8 8 9 8 5 5 6 5 5 15 21 21 19 18
20 21 21 20 19 18 17 16 16 14 11 10 10 9 8 8 8 7 5 4 5 5 6 5 4 7 10 11 12 11 9 11 14 17 20 22 21 22 24 25 22 22 23 22 26 32 33 32 32 33 35 34 34 34 32 32 32 30 31 30 28 27 24 22 20 19 20 21 20 19 16 12 11 11 10 9 9 10 8 5 5 7 8 12 14 15 16 18
20 20 20 20 19 18 17 16 16 16 12 10 10 8 6 6 7 7 4 4 6 6 5 3 4 5 7 8 10 10 8 12 17 21 23 24 24 24 26 27 24 25 25 22 26 33 32 31 31 32 34 35 35 35 33 33 32 30 31 30 29 28 26 24 23 22 22 23 22 20 17 13 12 12 12 11 11 12 11 8 7 8 9 11 12 13 14 16
20 20 20 20 19 19 18 17 16 16 14 11 10 8 6 6 8 6 4 4 5 7 5 4 6 4 3 5 8 8 8 14 17 21 24 24 24 25 27 27 25 27 28 25 28 32 31 30 31 32 33 34 37 36 34 33 31 28 29 30 29 28 27 26 24 23 23 23 21 18 14 12 12 12 12 12 12 13 12 11 10 10 10 11 13 14 15 17
19 19 20 20 19 19 18 17 15 15 14 12 11 10 7 5 8 7 3 4 6 8 7 6 6 4 3 5 7 7 9 13 15 19 22 24 25 25 27 27 24 26 29 26 29 32 30 29 30 31 31 32 34 36 34 34 34 30 28 29 30 27 26 26 25 23 23 21 18 14 11 11 11 11 12 12 12 12 12 12 12 12 11 11 13 15 16 17
18 18 19 19 18 19 18 16 15 13 13 13 14 14 10 7 7 5 4 3 6 9 9 9 8 6 5 8 9 8 8 9 13 17 19 22 23 24 26 25 23 26 29 27 28 31 29 27 29 30 30 28 30 32 32 33 37 35 30 30 31 28 26 26 25 24 23 19 15 12 11 10 8 8 10 11 11 11 12 12 12 12 12 12 12 13 14 17
18 18 18 18 18 19 18 17 15 13 12 13 15 16 13 9 7 3 4 3 5 9 10 11 9 8 8 10 10 10 9 9 11 15 18 19 18 21 25 22 20 26 30 27 28 31 27 25 29 30 29 27 26 28 30 33 38 39 34 31 32 31 29 28 26 25 23 20 16 14 13 13 11 9 8 9 10 12 13 13 13 12 12 12 12 11 13 19
17 17 17 17 17 18 17 17 16 14 12 12 16 15 12 10 9 4 1 2 3 5 7 11 12 10 11 12 11 10 11 11 11 12 16 16 14 17 22 22 19 25 29 27 27 29 26 26 30 31 30 29 26 27 30 34 39 41 37 33 32 31 31 28 27 26 24 22 20 18 17 16 15 13 11 9 10 12 13 14 14 13 13 12 11 10 14 23
16 17 16 16 16 16 17 17 16 15 13 13 15 14 11 11 11 7 2 1 2 2 3 9 13 13 14 14 13 13 13 13 12 12 14 14 13 15 20 23 21 22 27 28 28 28 28 28 30 32 32 31 27 26 28 33 40 43 40 36 33 31 30 28 26 25 25 24 24 22 21 19 17 15 14 13 13 13 14 14 14 14 14 14 12 11 16 23
15 15 15 15 15 16 16 16 15 15 15 15 15 13 10 11 11 9 5 3 3 2 2 6 11 14 15 15 14 15 16 16 14 13 13 13 14 15 19 23 24 23 24 26 29 31 31 30 30 31 33 31 27 24 24 31 40 42 41 38 35 32 30 28 26 26 27 27 27 26 25 23 20 17 16 15 15 16 15 15 15 15 16 17 16 15 17 21
14 14 15 15 16 16 15 15 15 14 15 17 17 16 12 10 10 8 8 7 5 3 3 4 9 13 16 17 16 16 17 18 16 15 13 13 14 14 15 19 24 26 25 24 28 32 32 32 31 32 32 31 28 25 22 26 36 41 40 38 37 35 32 29 29 30 30 30 30 29 28 27 24 21 19 17 16 16 16 16 16 16 16 18 19 19 19 20
13 14 14 15 16 15 14 15 15 14 15 16 16 16 13 10 10 9 10 9 7 6 6 6 6 8 11 14 16 16 17 18 17 17 16 14 14 13 13 15 18 22 25 25 27 30 31 31 32 33 33 32 30 27 23 24 32 39 39 37 36 35 33 31 32 33 31 30 30 30 29 29 27 24 22 20 18 16 16 17 17 15 15 17 18 19 20 20
13 15 16 16 15 14 14 15 15 14 15 15 14 15 14 11 10 10 9 9 8 10 10 8 5 5 6 9 12 14 15 16 16 17 18 17 15 12 12 14 17 18 21 23 27 31 31 31 33 34 33 33 31 29 27 25 31 37 39 37 35 35 34 33 33 34 33 30 29 29 28 28 28 27 25 23 21 18 17 17 17 15 14 15 15 17 17 17
14 15 17 17 15 15 15 16 14 12 14 15 15 15 14 12 11 10 9 8 11 13 13 8 5 4 5 6 7 11 13 13 13 15 17 18 15 12 10 13 16 18 19 21 26 31 33 33 34 35 34 33 31 30 28 27 31 36 39 38 36 34 35 34 33 33 33 31 28 28 28 27 27 27 27 26 24 21 19 18 17 16 15 15 14 15 16 17
14 15 17 17 16 16 17 17 15 11 11 13 15 16 15 14 12 9 7 7 10 13 12 8 5 5 5 5 6 8 11 10 9 10 12 13 13 13 12 12 14 16 18 21 25 28 32 35 35 35 37 37 34 31 30 30 32 36 39 39 37 36 35 35 33 32 33 32 30 29 28 27 27 27 27 27 26 24 22 20 19 17 17 17 15 15 16 19
15 15 16 16 16 16 18 18 16 12 11 12 15 17 17 16 14 10 6 6 7 10 12 10 7 6 5 5 4 5 7 8 6 6 7 8 10 12 15 15 15 15 17 20 24 27 29 33 36 36 37 39 38 35 33 34 35 37 39 40 40 38 37 36 34 34 33 33 32 31 30 28 28 27 27 27 27 26 25 24 22 20 19 19 19 17 16 17
17 16 16 15 16 17 18 18 17 15 14 14 15 18 18 17 16 13 9 8 9 10 13 13 11 9 7 7 5 4 5 5 3 3 5 7 8 10 14 17 18 17 17 18 22 25 26 28 34 37 38 39 41 39 37 36 36 37 39 42 42 41 39 38 37 36 36 35 34 34 32 31 30 29 29 29 28 28 28 27 26 24 22 21 22 21 19 17
19 17 16 15 16 18 18 18 19 18 17 16 17 18 17 15 16 16 13 12 12 13 14 15 14 12 10 9 7 6 5 4 4 6 7 8 8 10 12 14 16 17 18 19 20 23 24 26 28 32 36 38 39 41 40 39 38 38 40 42 44 44 42 41 40 39 38 37 37 36 36 34 33 32 32 31 31 30 30 30 29 28 26 25 24 23 21 18
21 19 17 16 17 18 18 19 19 19 20 19 19 20 18 15 15 17 16 15 16 16 15 15 16 13 11 10 9 7 6 5 5 7 8 8 9 10 12 12 12 15 17 18 19 22 24 26 26 27 31 36 36 37 39 39 37 37 40 43 46 47 46 44 43 42 41 40 39 39 39 38 36 35 34 35 34 33 32 32 31 30 29 28 27 26 24 21
Wind_Direction
330 325 320 316 312 309 305 302 298 294 290 285 280 276 273 271 268 266 263 260 256 252 247 243 241 240 239 236 230 225 223 220 220 222 225 228 229 229 225 226 232 233 233 231 228 225 221 223 223 225 229 233 236 251 278 304 326 317 319 336 344 335 318 256 246 242 232 185 141 148 154 136 131 125 121 122 126 124 117 113 110 103 88 66 80 92 98 93
331 326 321 317 313 310 307 303 300 296 292 287 282 277 272 270 268 265 263 260 258 254 249 245 241 239 238 238 235 231 228 224 222 221 224 227 228 229 226 224 229 233 234 232 231 226 220 219 223 227 232 238 239 244 266 297 307 300 305 317 326 320 316 289 229 228 243 205 154 146 156 143 139 136 137 136 127 125 126 124 120 109 94 75 82 91 95 89
332 328 324 320 317 314 310 306 302 298 294 290 286 280 275 270 267 265 263 260 258 255 252 247 242 239 237 237 237 235 232 228 225 223 224 227 227 227 226 222 225 232 233 232 232 230 225 218 221 225 231 240 242 248 251 273 291 294 303 313 323 319 311 288 217 223 259 220 161 146 157 147 146 145 140 140 127 126 134 131 127 117 103 95 87 87 91 84
334 330 326 323 321 317 314 309 305 301 296 292 288 283 278 272 268 264 263 261 259 256 253 250 245 241 238 237 236 236 234 230 228 225 224 226 226 226 226 223 222 228 231 232 231 231 229 221 221 225 231 239 243 252 251 259 286 291 298 314 326 322 305 290 224 234 259 224 171 152 157 146 147 155 153 156 145 133 127 126 128 123 116 107 91 83 85 77
335 330 326 323 320 317 315 312 307 303 298 294 290 286 281 275 270 266 263 261 259 257 255 252 249 244 240 237 236 236 234 229 228 228 226 226 226 226 226 224 221 224 228 230 231 231 231 226 223 225 232 239 244 253 256 260 283 285 291 307 314 320 307 281 229 238 245 214 179 158 150 142 149 162 167 167 144 128 123 125 127 124 121 110 93 85 84 77
335 330 326 322 318 315 313 311 308 304 300 295 290 287 283 278 273 268 264 261 259 258 256 253 251 248 244 240 236 235 234 230 228 228 228 227 227 227 226 224 221 222 226 228 230 231 231 229 226 227 231 239 245 249 253 258 274 282 289 297 299 314 310 254 226 235 224 198 171 161 156 148 158 165 169 166 137 127 126 129 128 124 120 110 97 89 87 83
336 331 327 323 319 315 311 308 307 305 301 296 291 287 283 279 275 270 266 262 259 257 256 254 252 250 247 243 239 237 235 232 229 227 228 228 227 227 227 225 221 221 225 227 228 229 230 230 229 230 232 240 248 248 251 257 269 278 282 291 298 314 316 254 221 218 208 187 160 154 156 152 162 164 163 167 147 135 132 135 133 123 117 110 102 95 91 88
336 333 329 325 321 317 312 308 305 304 301 296 291 286 281 279 276 272 269 264 261 258 256 255 253 251 248 245 241 239 237 233 230 227 226 227 226 227 227 226 222 221 223 226 226 227 228 228 229 231 233 238 246 250 252 258 266 275 282 293 303 313 318 276 213 199 197 188 165 148 148 163 170 166 167 168 163 147 134 140 137 124 117 111 104 99 92 90
337 334 330 327 324 320 315 310 307 304 301 297 293 288 283 279 276 273 270 266 263 260 257 255 254 252 249 246 242 240 239 236 232 228 225 225 225 226 226 226 224 221 223 226 227 225 225 226 227 230 232 234 240 247 251 258 268 277 288 294 303 310 309 281 215 195 190 188 175 159 153 169 173 166 171 169 166 151 133 141 139 127 123 116 107 98 89 87
337 334 330 328 325 322 318 314 311 308 305 301 297 292 288 283 279 275 271 268 264 261 258 256 254 253 251 248 244 240 239 238 234 231 227 224 223 223 224 225 225 222 222 224 225 223 221 222 224 228 232 232 236 242 244 253 267 273 286 291 301 321 296 259 224 195 187 183 178 174 162 163 168 161 164 166 166 152 136 142 141 132 130 123 115 104 94 89
336 333 330 328 326 323 321 318 315 313 310 306 303 299 295 290 286 281 276 271 266 262 259 256 254 252 251 249 246 241 238 237 236 233 229 226 223 221 221 223 223 221 221 223 225 222 219 219 220 226 230 231 234 240 238 245 262 265 275 285 297 327 306 257 225 197 187 184 182 182 165 157 167 163 160 166 170 162 146 146 147 142 138 130 123 116 109 103
335 332 330 329 327 325 323 321 319 317 315 312 309 305 302 298 293 288 282 276 270 264 259 257 255 253 252 251 248 244 240 237 235 233 230 227 224 221 219 219 220 219 219 222 223 221 218 217 217 222 227 228 230 235 238 242 255 260 264 277 294 313 306 268 218 199 188 188 187 182 162 156 170 168 161 165 167 173 161 152 154 151 145 137 131 127 120 114
334 332 331 330 329 328 327 325 324 322 320 317 314 311 308 304 299 294 286 279 272 265 260 257 255 254 254 254 252 249 244 239 236 233 230 228 225 222 219 217 217 217 218 221 222 219 216 217 217 219 223 225 226 228 233 239 247 257 259 265 278 279 283 268 222 205 190 188 189 181 164 157 169 168 160 165 170 178 170 159 161 156 149 142 137 137 129 120
333 333 332 332 332 332 330 329 328 326 323 320 318 315 313 310 305 298 289 280 272 266 261 258 256 255 254 255 254 251 247 243 238 233 230 228 225 223 220 217 216 216 218 221 221 218 216 216 216 217 219 221 224 224 225 230 238 249 252 253 261 258 243 242 235 209 190 188 188 181 170 161 167 172 161 167 181 183 172 164 167 162 151 145 145 147 138 127
334 334 334 334 335 334 333 332 330 329 327 324 321 319 317 314 309 301 292 284 275 268 263 260 257 254 253 253 252 249 247 245 241 234 230 228 225 222 220 216 215 215 217 219 219 216 214 215 215 215 215 216 219 220 219 224 231 238 238 236 243 244 219 200 237 216 194 185 184 182 177 171 174 183 164 168 188 188 175 167 170 168 154 150 154 155 151 141
335 336 336 337 337 336 335 334 334 332 330 327 325 323 320 317 311 304 297 290 282 274 267 261 257 253 250 250 249 248 247 246 243 235 228 226 225 222 220 217 215 215 216 217 217 213 212 213 212 213 212 212 214 215 215 220 226 230 227 223 225 223 192 157 240 220 196 183 183 183 182 181 182 192 172 172 191 190 180 172 174 174 158 158 167 162 161 159
336 337 338 339 340 338 338 337 337 335 333 332 329 327 323 317 311 305 301 296 290 282 271 262 257 253 251 250 250 249 249 248 246 239 228 224 223 221 219 217 215 215 216 216 214 212 211 210 208 209 209 207 210 213 214 218 221 225 223 217 217 213 190 153 107 180 187 188 192 185 182 186 190 198 185 179 189 187 181 177 179 179 162 164 176 169 170 171
335 336 338 341 340 340 340 339 339 338 337 336 333 330 325 317 311 306 302 299 293 287 276 266 260 256 255 255 255 254 253 252 249 242 232 224 222 220 217 216 215 214 215 215 213 211 211 208 204 205 202 199 208 211 209 212 215 220 221 215 217 221 201 170 129 144 163 185 196 191 190 199 205 205 198 190 188 185 183 181 183 181 166 171 182 177 178 178
335 335 337 340 341 341 341 341 341 341 341 341 338 334 327 319 313 308 305 300 295 290 282 275 268 261 259 259 261 262 260 257 252 244 233 223 221 220 217 215 215 214 214 213 212 210 210 207 203 202 193 191 208 211 205 207 212 216 218 212 211 219 208 184 163 156 150 154 194 211 213 215 214 209 206 199 192 192 188 182 184 180 168 177 189 184 183 182
334 334 337 340 341 342 343 344 346 346 345 345 341 337 330 323 317 314 312 304 298 296 290 282 273 265 262 261 262 264 263 259 254 246 234 223 219 218 217 215 214 214 213 212 211 210 209 208 202 196 187 195 209 210 205 206 210 216 218 211 206 213 210 197 191 179 156 147 177 223 232 222 212 205 204 205 202 205 199 186 184 180 172 182 192 187 184 186
334 334 336 339 342 343 346 348 350 348 347 346 344 340 336 333 325 321 316 306 306 308 299 290 280 270 263 262 263 265 265 259 254 246 234 222 216 216 216 214 214 213 212 211 211 209 209 207 199 192 192 203 208 206 206 207 209 217 220 213 206 213 217 210 201 194 193 186 184 217 234 224 212 203 204 208 207 209 208 197 187 182 180 185 191 186 182 185
334 334 336 339 342 345 348 350 350 349 349 350 350 347 345 342 334 330 326 318 321 318 306 298 288 271 257 255 263 269 271 266 257 246 234 221 214 214 214 211 210 211 210 210 210 209 209 205 198 196 200 206 206 200 204 206 207 218 220 213 207 212 222 221 210 192 209 234 246 239 225 226 220 214 216 216 211 208 212 208 192 186 188 189 191 185 179 182
335 335 336 339 343 346 348 350 351 353 355 358 358 355 353 351 347 345 340 334 333 328 321 322 309 282 263 253 260 270 274 271 260 243 232 219 210 212 212 206 205 207 208 208 208 208 208 204 201 202 205 208 204 199 204 204 206 219 221 213 207 209 218 224 219 185 110 222 259 254 231 230 238 232 232 227 217 210 212 214 200 190 191 190 191 185 180 183
336 335 336 338 342 345 347 351 355 358 2 4 4 3 0 357 355 351 345 339 333 330 330 330 321 299 281 266 265 276 278 276 265 241 229 217 208 208 207 203 202 204 204 204 204 204 203 203 205 205 206 209 205 200 204 204 205 216 217 211 207 209 215 224 228 222 211 229 250 272 258 251 260 268 254 236 224 217 213 215 209 198 194 190 188 186 187 191
336 336 336 337 340 343 346 353 358 3 6 7 7 6 4 1 354 345 340 331 320 321 326 324 318 300 276 261 252 267 276 280 272 241 225 216 207 203 202 202 202 200 199 198 198 197 198 201 205 206 206 208 206 201 204 206 205 210 214 211 206 208 215 224 234 241 238 242 254 268 279 275 269 284 290 261 237 226 219 217 214 206 199 191 186 186 190 198
337 337 336 336 338 341 347 355 0 5 7 7 10 8 5 4 353 347 340 323 311 321 326 322 324 316 288 264 237 237 257 263 256 236 220 212 210 205 199 200 201 198 195 192 192 194 196 200 204 206 206 206 206 202 202 205 204 208 213 212 202 201 212 220 231 243 244 248 260 269 279 285 281 284 295 287 259 237 226 220 218 213 206 196 189 189 190 196
337 337 336 336 337 340 347 355 0 4 6 9 11 6 3 360 356 358 348 333 331 328 322 2 359 343 318 279 240 224 240 240 229 225 217 210 211 206 199 198 199 197 194 190 189 192 194 197 200 205 207 207 206 202 202 203 205 210 213 212 202 197 210 223 232 242 248 251 261 275 280 284 284 286 291 289 277 254 233 221 219 217 213 206 196 192 191 194
338 337 335 335 336 338 344 353 358 1 6 11 9 5 1 359 3 2 351 352 2 334 310 14 27 34 28 340 226 207 224 239 228 217 212 211 210 202 195 197 199 197 194 189 188 191 193 195 198 201 206 209 207 202 202 203 206 210 211 213 208 203 211 222 230 238 247 252 258 270 271 274 280 281 289 290 289 271 233 216 216 218 219 219 210 200 194 193
339 337 335 335 335 336 340 348 355 360 5 8 9 7 359 359 7 2 355 4 9 352 350 24 52 59 46 38 61 171 182 234 234 212 203 205 205 198 191 193 198 198 193 187 187 190 192 195 197 199 203 206 205 202 202 202 204 209 213 216 216 217 219 219 224 233 241 248 254 265 266 263 270 277 287 290 299 312 206 204 214 223 223 222 220 212 201 194
340 338 334 333 334 334 335 342 351 357 2 4 9 7 357 1 7 358 2 27 21 31 66 94 98 79 61 62 65 51 136 202 218 198 192 196 194 190 187 187 195 196 190 186 187 188 189 194 197 199 201 201 198 196 199 201 203 211 216 217 219 223 226 229 232 232 233 242 253 264 268 258 255 262 266 280 306 322 183 199 224 238 231 222 217 214 208 196
341 338 334 331 333 332 330 337 346 351 360 4 7 3 355 3 5 354 358 21 30 72 89 104 107 90 76 80 88 99 114 142 188 177 175 188 188 182 179 182 190 192 185 181 183 184 186 190 194 198 200 199 196 192 196 201 204 208 212 214 218 222 227 230 227 217 216 232 250 260 266 256 246 248 244 245 294 314 262 239 253 269 251 226 211 208 209 200
342 339 334 329 329 329 328 332 336 346 359 2 1 358 354 2 0 348 349 11 103 125 111 110 109 95 86 87 92 98 100 107 137 152 158 172 173 167 172 180 183 182 176 173 177 182 185 187 190 194 195 196 196 195 199 204 204 206 208 209 215 221 223 220 212 204 208 222 238 246 252 251 243 243 242 242 257 285 292 263 261 284 258 219 203 200 204 203
341 338 334 329 326 326 327 326 329 342 357 359 357 349 351 3 354 343 2 39 112 141 140 128 118 101 94 93 92 91 95 109 118 129 144 155 155 160 172 177 175 173 172 172 175 181 184 186 188 189 189 192 195 197 202 207 206 208 211 211 212 217 218 213 214 223 226 224 231 233 235 245 245 242 244 246 245 253 279 271 258 284 241 199 192 192 198 203
339 337 333 329 325 324 324 323 326 336 350 355 351 339 349 3 347 342 17 55 104 140 159 151 130 106 97 91 88 90 99 112 118 129 142 147 152 164 171 171 172 176 177 176 176 179 181 184 185 184 185 190 193 195 201 208 208 205 207 209 211 214 217 216 221 230 231 231 233 231 233 246 253 249 246 246 238 233 254 269 247 242 200 185 185 188 194 199
334 334 332 328 325 322 320 321 321 327 341 349 343 339 351 354 336 344 24 86 114 133 160 167 151 120 103 94 89 88 102 121 131 142 148 151 158 169 171 171 177 182 182 181 179 179 179 181 183 182 183 187 189 192 198 203 206 203 201 204 209 213 218 221 224 227 227 232 237 238 241 248 252 252 248 249 246 239 241 249 238 224 207 198 195 195 199 203
328 329 329 327 324 320 317 319 319 321 333 342 338 335 339 332 327 343 21 114 137 153 159 172 195 159 119 114 105 90 110 143 151 154 156 161 168 174 176 176 180 185 185 184 182 181 180 182 183 182 184 186 185 191 197 199 204 209 208 209 212 214 219 222 224 226 227 232 240 244 247 249 247 247 246 248 248 242 238 238 239 232 219 214 213 212 214 215
322 324 325 325 324 321 317 318 318 322 329 332 325 316 313 314 313 330 27 116 162 174 169 190 208 189 139 133 115 96 126 155 164 165 166 172 177 179 180 180 181 187 189 187 186 184 182 184 184 181 184 187 186 190 196 197 202 211 214 216 218 220 223 226 225 228 229 231 236 241 247 249 245 242 238 238 239 237 235 233 233 232 225 220 217 217 221 221
316 319 321 323 324 321 317 316 316 319 320 316 310 305 302 297 295 311 37 116 179 188 191 207 208 203 184 152 132 123 141 155 169 177 177 180 184 185 185 183 184 189 192 192 190 187 188 189 186 180 183 189 190 191 195 199 202 206 210 216 220 222 226 229 228 229 232 233 233 238 242 237 234 233 228 226 230 234 234 232 230 228 227 224 221 221 223 220
312 314 318 322 321 319 316 313 310 311 311 309 310 311 306 285 279 305 35 98 190 206 218 223 219 223 208 175 163 161 159 163 177 186 188 187 189 192 189 188 188 187 190 195 193 189 191 193 188 183 185 192 193 192 194 198 201 204 207 213 220 221 222 227 228 227 231 234 232 228 221 210 204 211 216 217 222 228 231 235 235 233 232 231 230 231 226 214
310 312 317 319 319 319 316 309 305 306 312 311 310 312 307 287 273 299 34 73 201 223 236 237 232 228 210 194 188 183 184 190 188 194 200 198 200 203 196 192 190 184 184 191 194 191 191 191 188 185 187 193 195 193 195 196 198 203 207 213 220 221 220 224 227 226 224 224 222 212 201 196 187 182 194 209 219 225 227 230 231 231 233 236 240 240 221 199
310 312 315 318 319 319 314 308 307 309 314 308 301 302 298 280 267 268 37 87 218 246 249 243 240 231 217 211 208 206 208 209 204 208 214 214 220 220 208 199 194 187 183 184 188 189 188 186 184 184 188 192 195 197 199 198 198 202 205 209 215 218 219 220 223 225 219 214 213 205 196 200 197 186 184 195 212 224 227 228 228 227 227 230 238 235 207 190
312 313 315 317 317 314 310 311 312 313 308 294 287 289 283 267 259 256 246 183 241 300 275 248 245 238 230 225 221 226 230 226 222 224 228 228 230 230 219 207 201 198 191 183 180 183 186 186 186 187 190 193 196 200 203 203 201 202 203 206 210 214 218 218 218 222 219 214 215 211 206 208 206 198 192 196 207 218 223 227 229 228 225 223 225 221 206 198
314 313 311 311 307 306 310 314 315 315 307 293 285 284 278 264 258 255 245 227 248 304 300 247 239 236 239 241 234 233 238 240 240 239 241 244 238 230 222 213 209 209 202 189 182 183 185 188 192 193 194 196 197 196 201 205 203 203 205 206 207 210 214 216 215 217 218 218 220 221 217 215 212 208 203 205 212 218 222 224 226 228 226 221 218 214 213 210
314 309 305 302 300 304 311 312 313 313 308 297 288 283 278 268 260 248 236 236 244 257 258 244 232 231 241 248 244 238 239 243 250 254 256 258 251 237 225 218 215 213 209 202 195 190 185 185 191 196 196 198 199 194 198 205 204 205 208 208 207 208 212 216 216 215 217 219 221 224 223 220 215 211 209 210 215 219 224 224 224 226 227 225 221 216 218 217
309 303 299 296 298 303 304 303 308 311 308 302 291 283 279 269 258 244 235 239 243 244 250 252 246 240 243 247 246 243 243 245 253 263 269 271 263 247 234 229 225 216 209 210 210 202 192 185 188 196 197 197 199 198 199 204 205 206 209 210 209 209 211 213 214 214 217 219 222 225 226 224 220 214 212 214 215 219 225 227 226 226 228 229 228 223 223 225
303 298 296 295 295 297 295 297 305 307 305 303 292 283 278 268 260 257 251 242 236 241 250 255 266 263 246 245 246 245 246 249 256 264 270 272 268 255 238 229 231 224 212 212 215 212 206 195 189 195 201 199 199 201 201 204 206 208 211 211 210 209 208 207 208 211 214 217 221 224 225 225 223 219 216 217 219 221 226 231 232 232 232 232 232 230 230 234
299 295 295 295 292 290 290 293 299 300 299 299 292 283 278 273 269 270 265 248 237 244 253 258 272 276 251 238 241 244 249 252 256 260 263 263 259 251 236 221 225 227 216 213 217 217 217 211 198 194 200 202 200 200 203 205 206 208 210 211 209 207 205 203 202 207 213 215 218 222 224 224 225 224 221 221 223 225 228 233 236 239 241 238 234 233 232 234
293 290 293 295 291 287 287 290 294 293 287 289 287 282 280 282 285 283 272 254 241 246 253 256 266 279 270 242 226 233 238 233 231 238 246 250 244 234 226 215 216 223 219 216 218 218 222 223 213 201 197 200 202 200 202 206 209 210 210 210 207 205 204 204 203 206 211 214 216 221 223 224 228 230 227 225 226 228 230 231 232 237 243 244 242 239 235 236
289 286 289 291 286 283 284 287 291 283 269 272 276 277 280 284 289 291 280 260 244 244 249 251 247 251 264 265 254 240 230 220 216 222 230 237 231 223 222 218 213 213 216 218 218 219 223 227 226 216 204 200 202 202 203 205 208 211 212 212 208 204 205 207 206 208 212 214 216 219 222 223 228 232 233 232 230 230 231 231 231 233 237 241 243 239 237 243
284 283 284 284 280 278 281 284 285 279 271 267 267 271 278 282 286 291 284 265 251 246 249 251 243 232 236 255 263 255 234 219 202 198 216 229 228 224 227 228 220 212 211 218 222 223 225 229 230 228 221 212 204 203 205 207 208 209 211 213 212 208 207 210 211 212 215 216 218 221 224 225 228 232 234 235 234 232 231 232 232 234 234 235 239 237 236 242
278 278 278 276 274 274 277 278 281 280 275 268 263 267 273 277 284 294 293 277 264 254 249 252 251 242 236 239 243 245 243 230 198 189 203 218 222 223 229 231 226 216 209 212 220 224 227 230 234 235 235 228 216 207 206 207 208 209 209 211 212 211 210 212 214 216 217 218 220 223 226 228 230 232 234 235 236 235 234 233 235 236 236 236 239 240 242 244
273 273 273 270 268 270 272 274 278 280 278 273 270 270 272 273 279 287 291 289 281 270 258 255 257 254 244 239 241 245 247 241 219 205 212 222 225 227 231 231 227 222 217 213 216 222 225 228 234 241 243 241 232 220 212 208 207 209 210 210 212 212 213 214 217 220 221 221 223 226 229 230 231 232 234 235 236 236 236 235 236 239 241 240 241 244 249 252
Height
5887 5886 5884 5883 5882 5880 5879 5878 5877 5876 5875 5875 5874 5874 5873 5873 5872 5872 5872 5872 5872 5873 5873 5874 5875 5875 5876 5877 5878 5878 5879 5880 5881 5882 5883 5884 5886 5888 5890 5891 5891 5891 5892 5893 5894 5894 5895 5895 5896 5896 5897 5897 5896 5897 5896 5896 5896 5896 5896 5895 5895 5895 5895 5895 5895 5895 5895 5895 5896 5898 5899 5899 5900 5901 5901 5902 5902 5903 5902 5903 5904 5904 5904 5904 5905 5905 5905 5905
5886 5885 5883 5882 5880 5879 5878 5877 5876 5875 5874 5873 5873 5872 5872 5871 5871 5871 5871 5871 5871 5871 5872 5872 5873 5873 5874 5875 5876 5877 5878 5879 5880 5881 5882 5883 5884 5886 5888 5890 5890 5891 5892 5892 5893 5893 5894 5895 5895 5896 5896 5896 5896 5896 5896 5896 5896 5896 5896 5895 5894 5894 5894 5894 5895 5894 5894 5895 5895 5897 5899 5899 5900 5900 5901 5902 5902 5903 5903 5903 5905 5905 5904 5905 5906 5906 5906 5906
5885 5883 5882 5880 5879 5878 5876 5875 5874 5873 5872 5871 5871 5870 5870 5870 5869 5869 5869 5869 5869 5869 5870 5870 5871 5871 5872 5873 5874 5875 5876 5877 5878 5879 5880 5881 5883 5884 5886 5888 5889 5890 5891 5892 5892 5893 5893 5894 5895 5895 5895 5895 5895 5895 5896 5896 5895 5896 5896 5895 5895 5895 5895 5894 5894 5894 5894 5896 5895 5896 5898 5899 5900 5900 5901 5902 5902 5903 5903 5903 5904 5905 5905 5906 5907 5907 5907 5907
5884 5882 5881 5879 5878 5876 5875 5874 5873 5872 5871 5870 5869 5868 5868 5868 5867 5867 5867 5867 5867 5868 5868 5868 5869 5869 5870 5871 5872 5873 5874 5876 5877 5878 5879 5880 5881 5883 5884 5886 5887 5889 5890 5891 5892 5892 5893 5893 5894 5895 5895 5894 5894 5895 5895 5895 5895 5896 5896 5896 5895 5895 5895 5895 5895 5894 5894 5896 5896 5897 5898 5899 5900 5900 5900 5901 5902 5903 5903 5904 5904 5905 5905 5906 5907 5907 5907 5907
5883 5881 5880 5878 5877 5875 5874 5873 5871 5870 5869 5868 5867 5867 5866 5866 5866 5865 5865 5865 5866 5866 5866 5867 5867 5867 5868 5869 5870 5871 5872 5874 5875 5876 5877 5878 5879 5881 5882 5884 5886 5887 5888 5890 5891 5891 5892 5893 5894 5894 5894 5894 5894 5894 5894 5895 5895 5896 5896 5895 5895 5894 5895 5895 5894 5893 5894 5896 5897 5897 5898 5899 5900 5899 5900 5902 5903 5903 5903 5904 5905 5905 5905 5906 5907 5908 5908 5907
5881 5880 5878 5877 5875 5874 5872 5871 5870 5869 5868 5867 5866 5865 5864 5864 5863 5863 5863 5863 5863 5864 5864 5864 5865 5865 5866 5867 5867 5869 5870 5872 5873 5874 5875 5877 5878 5879 5881 5882 5884 5885 5887 5888 5889 5890 5891 5892 5893 5893 5894 5893 5893 5893 5893 5894 5895 5895 5895 5894 5893 5894 5895 5894 5893 5892 5894 5895 5896 5897 5898 5899 5900 5900 5901 5903 5903 5903 5904 5905 5906 5906 5906 5906 5907 5908 5908 5908
5879 5878 5876 5875 5874 5872 5871 5870 5868 5867 5866 5865 5864 5863 5862 5862 5861 5861 5861 5861 5861 5861 5861 5862 5862 5863 5864 5864 5865 5866 5868 5869 5871 5872 5873 5875 5876 5878 5879 5881 5883 5884 5885 5886 5888 5889 5890 5892 5892 5892 5893 5893 5892 5892 5893 5894 5894 5894 5894 5893 5892 5894 5894 5893 5891 5891 5892 5894 5895 5896 5898 5899 5900 5900 5902 5903 5904 5904 5904 5905 5906 5906 5906 5906 5907 5908 5909 5909
5878 5876 5875 5873 5872 5870 5869 5868 5867 5866 5864 5863 5862 5861 5861 5860 5859 5859 5859 5859 5859 5859 5859 5859 5859 5860 5861 5862 5863 5864 5865 5867 5868 5870 5871 5873 5874 5876 5877 5879 5881 5882 5883 5884 5886 5888 5889 5891 5891 5891 5892 5891 5891 5891 5893 5894 5894 5893 5893 5892 5893 5893 5893 5891 5890 5890 5892 5893 5894 5896 5898 5900 5900 5900 5901 5903 5904 5905 5905 5906 5906 5906 5906 5907 5907 5908 5909 5909
5877 5875 5873 5871 5870 5868 5867 5866 5865 5864 5863 5861 5860 5860 5859 5858 5857 5857 5856 5856 5856 5856 5856 5857 5857 5857 5858 5859 5860 5861 5862 5864 5866 5868 5869 5871 5872 5874 5876 5877 5879 5881 5881 5882 5884 5886 5888 5889 5890 5891 5890 5890 5890 5891 5893 5894 5893 5892 5892 5892 5893 5892 5892 5890 5890 5891 5892 5893 5894 5896 5899 5901 5901 5901 5901 5902 5904 5905 5905 5906 5906 5906 5906 5907 5907 5908 5909 5909
5876 5874 5872 5870 5868 5867 5865 5864 5863 5862 5861 5860 5859 5858 5857 5856 5855 5855 5854 5854 5853 5853 5853 5854 5854 5854 5855 5856 5857 5858 5859 5861 5863 5865 5867 5868 5870 5872 5873 5875 5877 5879 5880 5881 5882 5883 5885 5888 5889 5889 5889 5889 5890 5891 5893 5894 5893 5892 5892 5892 5892 5892 5891 5890 5890 5892 5892 5893 5895 5897 5898 5900 5901 5902 5902 5903 5904 5905 5905 5906 5907 5906 5907 5907 5908 5908 5909 5910
5875 5873 5871 5869 5867 5865 5864 5862 5861 5860 5859 5857 5857 5856 5855 5854 5853 5852 5852 5851 5851 5851 5850 5850 5850 5851 5851 5852 5853 5854 5856 5858 5859 5861 5864 5866 5868 5869 5871 5873 5875 5877 5878 5879 5879 5881 5884 5886 5887 5887 5888 5889 5890 5891 5892 5893 5893 5892 5892 5891 5891 5892 5891 5891 5891 5892 5892 5894 5896 5897 5897 5899 5901 5902 5902 5903 5904 5905 5905 5906 5907 5907 5907 5908 5908 5909 5910 5911
5873 5871 5869 5867 5865 5864 5862 5860 5859 5858 5856 5855 5854 5853 5852 5852 5851 5850 5849 5849 5848 5848 5847 5847 5847 5847 5848 5849 5850 5851 5853 5854 5856 5858 5861 5863 5865 5867 5869 5871 5873 5875 5876 5876 5877 5880 5882 5883 5885 5886 5887 5888 5890 5891 5892 5893 5892 5892 5893 5892 5892 5892 5892 5891 5891 5891 5892 5893 5895 5896 5897 5898 5900 5902 5902 5902 5904 5905 5905 5906 5907 5908 5908 5908 5909 5910 5911 5912
5872 5870 5868 5866 5864 5862 5860 5859 5857 5856 5855 5853 5852 5851 5850 5849 5848 5847 5846 5846 5845 5845 5844 5844 5844 5845 5846 5846 5847 5848 5850 5851 5852 5855 5857 5859 5862 5864 5867 5869 5871 5873 5874 5874 5875 5878 5880 5882 5884 5884 5886 5887 5889 5891 5892 5892 5892 5892 5893 5893 5893 5892 5892 5891 5890 5890 5891 5893 5894 5896 5897 5899 5900 5902 5903 5903 5904 5905 5906 5906 5907 5908 5908 5908 5909 5910 5912 5913
5871 5868 5866 5864 5862 5861 5859 5857 5856 5854 5853 5851 5850 5849 5848 5847 5846 5845 5844 5843 5842 5842 5842 5842 5842 5843 5843 5844 5845 5846 5846 5847 5849 5851 5854 5856 5859 5861 5864 5866 5869 5870 5871 5872 5874 5877 5879 5881 5882 5883 5884 5886 5888 5890 5891 5891 5891 5892 5892 5893 5893 5892 5892 5891 5891 5891 5892 5893 5894 5895 5897 5899 5900 5901 5902 5903 5905 5905 5906 5906 5907 5908 5908 5909 5910 5911 5912 5913
5869 5867 5865 5863 5861 5859 5857 5856 5854 5853 5851 5850 5848 5847 5845 5844 5843 5842 5841 5840 5840 5840 5840 5840 5840 5840 5841 5841 5842 5843 5843 5843 5844 5848 5851 5853 5855 5858 5860 5863 5865 5867 5868 5869 5872 5876 5878 5879 5880 5881 5883 5885 5887 5889 5890 5890 5891 5891 5892 5893 5893 5892 5891 5891 5892 5892 5893 5893 5894 5896 5897 5898 5900 5901 5902 5903 5905 5905 5905 5906 5907 5908 5909 5909 5910 5911 5912 5913
5868 5866 5864 5862 5860 5858 5856 5854 5853 5851 5850 5848 5846 5845 5843 5842 5840 5839 5838 5838 5838 5837 5837 5838 5838 5838 5838 5838 5839 5840 5841 5840 5840 5844 5847 5849 5851 5854 5857 5859 5861 5863 5865 5867 5871 5874 5876 5877 5879 5881 5882 5884 5886 5887 5888 5889 5891 5891 5893 5893 5893 5892 5891 5891 5891 5892 5893 5894 5895 5896 5897 5898 5899 5900 5901 5903 5904 5905 5905 5906 5906 5908 5909 5910 5911 5912 5912 5913
5867 5865 5863 5861 5859 5857 5855 5853 5851 5849 5848 5846 5844 5842 5841 5839 5838 5837 5836 5836 5836 5835 5835 5835 5835 5836 5836 5836 5837 5837 5838 5838 5838 5840 5843 5845 5847 5850 5853 5856 5858 5860 5862 5865 5869 5872 5874 5876 5878 5880 5881 5884 5885 5886 5887 5888 5890 5891 5892 5893 5893 5892 5891 5892 5892 5892 5894 5895 5895 5896 5897 5898 5899 5900 5901 5902 5904 5904 5904 5905 5906 5907 5908 5910 5911 5912 5913 5914
5866 5864 5862 5860 5858 5856 5854 5852 5850 5848 5846 5844 5842 5840 5839 5837 5835 5834 5834 5834 5833 5833 5833 5833 5833 5834 5833 5833 5834 5835 5836 5836 5836 5836 5839 5842 5844 5846 5849 5851 5854 5856 5859 5862 5867 5870 5872 5875 5877 5878 5880 5883 5885 5885 5886 5887 5888 5889 5891 5893 5893 5891 5891 5892 5892 5893 5894 5895 5896 5897 5897 5898 5899 5899 5900 5902 5902 5903 5903 5905 5906 5907 5908 5909 5911 5912 5913 5914
5865 5863 5861 5859 5857 5855 5853 5850 5848 5846 5844 5842 5840 5839 5837 5835 5833 5833 5832 5832 5831 5831 5831 5831 5831 5831 5831 5831 5832 5833 5834 5834 5833 5833 5835 5838 5841 5844 5846 5848 5850 5853 5856 5860 5864 5867 5870 5873 5875 5878 5881 5883 5883 5883 5884 5886 5887 5888 5889 5891 5892 5892 5891 5891 5892 5893 5894 5894 5896 5897 5897 5898 5898 5900 5901 5901 5902 5903 5903 5904 5906 5906 5907 5909 5911 5912 5913 5914
5864 5862 5860 5858 5856 5854 5851 5849 5847 5845 5843 5841 5839 5837 5835 5833 5832 5831 5831 5830 5829 5829 5829 5829 5829 5829 5828 5829 5829 5830 5831 5831 5831 5831 5832 5835 5838 5840 5843 5845 5848 5851 5854 5858 5861 5864 5867 5870 5875 5879 5882 5881 5880 5881 5883 5885 5886 5887 5888 5889 5891 5891 5891 5891 5892 5893 5893 5894 5895 5896 5896 5897 5898 5899 5900 5901 5902 5903 5904 5905 5906 5906 5907 5909 5911 5912 5913 5914
5863 5861 5859 5857 5855 5852 5850 5848 5846 5844 5842 5840 5838 5836 5834 5832 5831 5830 5830 5829 5828 5828 5828 5827 5827 5827 5826 5827 5827 5827 5828 5828 5829 5829 5830 5832 5835 5837 5839 5843 5846 5849 5852 5855 5858 5861 5864 5869 5875 5879 5879 5877 5877 5880 5883 5884 5885 5886 5886 5888 5889 5890 5890 5891 5892 5892 5893 5894 5894 5895 5896 5896 5897 5898 5899 5900 5902 5903 5904 5905 5906 5906 5908 5910 5911 5912 5912 5913
5861 5859 5857 5855 5853 5851 5849 5847 5845 5843 5841 5839 5837 5835 5833 5832 5830 5829 5828 5828 5827 5827 5827 5826 5826 5825 5825 5825 5825 5826 5826 5826 5827 5827 5828 5829 5832 5834 5837 5840 5844 5846 5848 5850 5855 5859 5863 5869 5875 5876 5875 5875 5876 5880 5882 5883 5884 5885 5886 5886 5887 5889 5890 5890 5892 5893 5893 5893 5894 5894 5895 5895 5896 5897 5898 5899 5901 5902 5903 5905 5906 5907 5908 5910 5911 5912 5912 5913
5860 5858 5856 5854 5852 5850 5849 5847 5845 5843 5840 5838 5836 5834 5832 5831 5830 5828 5827 5826 5826 5825 5825 5825 5825 5824 5824 5824 5824 5824 5825 5825 5825 5825 5826 5828 5830 5832 5835 5838 5841 5842 5844 5848 5853 5858 5864 5871 5873 5873 5872 5873 5876 5879 5880 5882 5884 5884 5885 5885 5886 5887 5888 5889 5891 5892 5892 5892 5892 5893 5894 5895 5895 5897 5897 5899 5901 5901 5902 5904 5905 5906 5908 5909 5911 5912 5912 5912
5859 5857 5855 5853 5851 5850 5848 5846 5844 5842 5839 5837 5835 5833 5832 5831 5829 5828 5827 5826 5825 5825 5824 5824 5824 5823 5823 5823 5823 5824 5824 5824 5824 5824 5825 5826 5828 5830 5833 5835 5837 5839 5843 5847 5851 5857 5863 5867 5867 5868 5870 5872 5875 5878 5880 5882 5884 5884 5883 5884 5885 5886 5887 5888 5889 5891 5892 5892 5892 5892 5893 5894 5895 5896 5897 5898 5899 5900 5901 5902 5904 5906 5907 5908 5910 5911 5912 5912
5858 5856 5854 5852 5851 5849 5847 5845 5843 5841 5839 5837 5835 5834 5832 5831 5830 5829 5828 5827 5826 5825 5824 5823 5823 5823 5823 5823 5823 5823 5823 5823 5823 5823 5824 5825 5827 5828 5830 5832 5835 5838 5842 5845 5849 5854 5857 5860 5862 5865 5868 5870 5873 5876 5879 5881 5883 5882 5882 5883 5884 5885 5886 5887 5888 5889 5891 5891 5891 5892 5892 5893 5894 5895 5896 5896 5897 5899 5900 5901 5903 5904 5906 5907 5908 5910 5912 5912
5857 5855 5853 5851 5850 5848 5846 5844 5842 5840 5839 5837 5836 5834 5833 5832 5830 5829 5828 5827 5826 5825 5824 5824 5823 5823 5823 5822 5822 5822 5822 5822 5822 5822 5823 5824 5826 5827 5829 5831 5834 5837 5839 5841 5845 5849 5852 5856 5860 5863 5865 5868 5871 5874 5877 5879 5881 5881 5881 5882 5884 5885 5886 5886 5887 5888 5889 5890 5891 5892 5893 5893 5893 5895 5895 5895 5895 5896 5898 5900 5901 5903 5905 5906 5907 5909 5911 5912
5856 5854 5852 5850 5848 5847 5845 5843 5841 5840 5839 5837 5836 5834 5833 5832 5830 5829 5828 5827 5826 5825 5824 5824 5824 5823 5823 5822 5822 5821 5821 5821 5821 5822 5823 5824 5825 5826 5828 5830 5832 5835 5836 5839 5843 5846 5849 5853 5857 5860 5863 5865 5868 5873 5875 5877 5879 5880 5881 5882 5883 5884 5885 5886 5886 5887 5888 5889 5891 5892 5892 5893 5893 5894 5894 5894 5894 5893 5894 5897 5900 5902 5904 5905 5906 5908 5909 5911
5855 5853 5851 5849 5848 5846 5844 5842 5841 5840 5839 5837 5836 5834 5833 5831 5830 5829 5827 5826 5826 5825 5824 5824 5824 5823 5823 5822 5821 5821 5820 5821 5821 5821 5822 5823 5824 5825 5827 5829 5831 5833 5836 5840 5842 5844 5848 5851 5854 5858 5861 5863 5868 5873 5874 5876 5878 5878 5879 5880 5881 5881 5883 5884 5885 5886 5887 5888 5890 5891 5892 5892 5892 5893 5893 5893 5893 5891 5891 5895 5899 5901 5904 5905 5906 5907 5909 5910
5854 5852 5850 5849 5847 5845 5844 5842 5841 5839 5838 5837 5836 5834 5833 5831 5830 5828 5827 5826 5825 5824 5824 5824 5824 5823 5822 5822 5821 5821 5820 5820 5820 5820 5821 5822 5824 5825 5826 5829 5831 5834 5837 5839 5841 5843 5847 5849 5852 5854 5857 5862 5868 5871 5872 5874 5875 5876 5877 5879 5879 5880 5881 5883 5883 5885 5886 5887 5888 5890 5891 5892 5892 5892 5893 5893 5892 5891 5891 5894 5898 5900 5902 5904 5905 5907 5908 5909
5853 5851 5850 5848 5846 5845 5843 5842 5840 5839 5838 5837 5835 5834 5832 5831 5830 5828 5827 5826 5825 5824 5823 5823 5823 5823 5822 5822 5822 5821 5820 5820 5820 5820 5821 5822 5824 5825 5827 5829 5832 5834 5837 5839 5840 5843 5845 5847 5850 5853 5856 5861 5865 5867 5869 5871 5872 5873 5876 5877 5877 5878 5880 5882 5883 5883 5884 5886 5888 5889 5890 5891 5891 5891 5892 5893 5893 5892 5893 5895 5896 5898 5899 5901 5903 5905 5907 5908
5852 5851 5849 5847 5845 5844 5843 5841 5839 5838 5837 5836 5834 5833 5832 5831 5830 5829 5828 5826 5825 5824 5824 5823 5823 5823 5823 5822 5822 5822 5821 5820 5820 5820 5821 5823 5824 5825 5827 5830 5832 5834 5837 5838 5840 5841 5843 5845 5849 5852 5856 5860 5863 5864 5865 5867 5869 5871 5874 5875 5876 5877 5879 5881 5883 5883 5882 5884 5886 5888 5888 5889 5890 5891 5892 5892 5893 5893 5894 5894 5895 5896 5896 5898 5901 5903 5906 5907
5851 5850 5848 5846 5844 5843 5842 5840 5839 5838 5836 5835 5834 5833 5832 5831 5830 5829 5828 5826 5825 5825 5824 5824 5824 5823 5823 5823 5823 5822 5821 5821 5821 5821 5821 5823 5825 5826 5828 5830 5832 5834 5836 5837 5838 5839 5841 5844 5847 5851 5855 5858 5860 5861 5862 5864 5867 5870 5871 5872 5874 5877 5878 5880 5883 5883 5882 5883 5885 5886 5887 5888 5889 5890 5891 5892 5892 5892 5893 5893 5894 5894 5893 5894 5898 5901 5904 5906
5850 5849 5847 5845 5843 5842 5841 5840 5839 5837 5836 5835 5834 5833 5832 5830 5830 5829 5828 5826 5826 5826 5825 5824 5824 5823 5823 5822 5822 5823 5822 5821 5821 5822 5823 5824 5826 5827 5829 5830 5832 5833 5834 5835 5837 5839 5841 5843 5846 5849 5853 5856 5858 5860 5860 5863 5866 5868 5870 5871 5873 5876 5877 5880 5882 5882 5882 5883 5884 5885 5886 5887 5888 5889 5890 5891 5891 5892 5892 5893 5893 5893 5891 5892 5895 5899 5902 5904
5850 5848 5846 5844 5842 5841 5840 5839 5838 5837 5836 5835 5834 5833 5831 5830 5830 5829 5827 5826 5826 5826 5825 5825 5824 5823 5823 5822 5822 5823 5823 5822 5822 5823 5824 5825 5827 5828 5828 5830 5831 5832 5833 5834 5836 5838 5840 5843 5845 5848 5852 5855 5857 5859 5860 5863 5866 5868 5869 5870 5872 5875 5877 5879 5880 5881 5882 5882 5883 5884 5885 5887 5888 5889 5890 5890 5891 5891 5892 5892 5892 5892 5892 5892 5894 5897 5899 5902
5848 5847 5845 5843 5841 5840 5839 5837 5836 5836 5835 5835 5834 5833 5831 5831 5830 5829 5827 5826 5825 5825 5825 5825 5824 5824 5823 5822 5822 5823 5823 5823 5823 5824 5825 5825 5826 5827 5827 5829 5830 5831 5832 5834 5835 5837 5840 5842 5844 5847 5850 5854 5857 5858 5859 5862 5864 5865 5867 5869 5871 5873 5875 5877 5878 5879 5881 5881 5881 5883 5885 5886 5887 5888 5889 5889 5890 5891 5891 5891 5892 5892 5892 5893 5894 5896 5898 5900
5847 5845 5844 5842 5840 5839 5838 5836 5835 5835 5835 5834 5833 5832 5831 5830 5829 5828 5826 5825 5825 5825 5825 5825 5824 5824 5823 5823 5822 5823 5824 5824 5824 5824 5825 5825 5825 5826 5827 5828 5830 5832 5833 5834 5836 5838 5840 5842 5844 5847 5850 5853 5855 5857 5858 5859 5861 5863 5865 5867 5870 5872 5873 5875 5876 5877 5878 5879 5880 5882 5884 5885 5886 5887 5888 5889 5889 5889 5890 5890 5890 5891 5891 5892 5894 5896 5897 5899
5846 5844 5842 5841 5839 5838 5837 5836 5834 5834 5834 5834 5833 5832 5831 5830 5829 5828 5826 5825 5825 5825 5825 5824 5824 5824 5823 5823 5823 5823 5824 5825 5825 5825 5825 5825 5825 5826 5827 5829 5831 5832 5833 5835 5836 5838 5840 5842 5843 5846 5848 5851 5853 5855 5856 5858 5859 5862 5864 5866 5868 5870 5871 5872 5873 5874 5876 5878 5879 5881 5883 5884 5885 5886 5887 5888 5888 5888 5888 5888 5888 5889 5889 5890 5892 5893 5895 5897
5844 5843 5841 5840 5838 5837 5836 5835 5834 5833 5833 5832 5832 5831 5830 5830 5829 5828 5826 5825 5825 5825 5825 5824 5824 5824 5824 5824 5823 5823 5824 5825 5826 5825 5825 5825 5825 5826 5827 5829 5830 5832 5834 5835 5837 5838 5840 5841 5843 5845 5847 5849 5851 5853 5855 5856 5858 5861 5862 5864 5866 5868 5869 5870 5871 5872 5874 5876 5879 5880 5882 5883 5883 5884 5885 5886 5886 5886 5886 5887 5887 5887 5888 5888 5889 5891 5892 5894
5843 5841 5840 5839 5837 5836 5835 5834 5833 5833 5832 5831 5830 5830 5830 5829 5828 5827 5825 5825 5825 5824 5824 5824 5824 5824 5824 5824 5824 5824 5824 5824 5825 5826 5825 5825 5825 5826 5827 5828 5829 5831 5833 5835 5837 5838 5839 5841 5843 5845 5847 5848 5850 5851 5853 5854 5857 5858 5860 5862 5864 5866 5867 5868 5870 5871 5873 5876 5878 5879 5881 5881 5881 5882 5883 5884 5884 5884 5885 5885 5886 5886 5887 5887 5888 5888 5889 5891
5841 5840 5839 5838 5836 5835 5833 5832 5832 5831 5831 5829 5829 5829 5829 5828 5827 5826 5825 5824 5824 5824 5824 5824 5823 5823 5823 5823 5824 5824 5824 5824 5825 5825 5825 5825 5826 5826 5827 5827 5828 5829 5831 5833 5836 5837 5839 5841 5843 5844 5846 5847 5848 5849 5850 5852 5854 5856 5858 5860 5862 5864 5865 5867 5869 5870 5872 5875 5876 5878 5879 5879 5879 5880 5881 5882 5883 5883 5883 5884 5884 5885 5886 5886 5886 5887 5887 5888
5839 5838 5837 5836 5835 5833 5832 5831 5830 5830 5829 5828 5828 5828 5828 5827 5827 5825 5824 5824 5823 5823 5823 5823 5823 5822 5822 5823 5823 5823 5823 5824 5825 5825 5825 5825 5826 5826 5827 5827 5828 5828 5829 5832 5834 5836 5838 5840 5841 5843 5845 5846 5846 5847 5848 5849 5850 5852 5855 5857 5859 5862 5864 5866 5868 5869 5871 5873 5874 5876 5877 5876 5877 5878 5879 5880 5881 5882 5883 5883 5883 5884 5884 5885 5885 5885 5886 5886
5837 5836 5835 5835 5833 5832 5831 5830 5828 5828 5827 5827 5827 5827 5827 5826 5826 5825 5824 5823 5822 5822 5822 5822 5822 5822 5821 5822 5822 5823 5822 5823 5824 5824 5824 5825 5825 5825 5826 5827 5828 5828 5829 5830 5832 5834 5837 5839 5840 5842 5843 5844 5844 5844 5845 5846 5847 5848 5852 5855 5858 5860 5862 5864 5867 5868 5870 5872 5872 5874 5874 5875 5876 5877 5878 5879 5879 5881 5882 5882 5883 5883 5883 5883 5884 5884 5885 5885
5836 5834 5833 5832 5831 5830 5829 5828 5827 5826 5826 5826 5826 5826 5825 5824 5825 5824 5823 5822 5822 5822 5822 5821 5821 5821 5820 5820 5821 5822 5821 5821 5822 5823 5824 5823 5823 5824 5825 5827 5828 5828 5829 5829 5830 5832 5834 5837 5839 5841 5842 5842 5842 5842 5843 5844 5846 5848 5851 5854 5856 5858 5860 5863 5865 5866 5867 5869 5870 5871 5872 5873 5875 5876 5877 5878 5878 5879 5881 5881 5882 5882 5882 5882 5882 5883 5883 5884
5834 5832 5831 5830 5829 5828 5827 5826 5826 5825 5825 5824 5824 5824 5823 5823 5823 5823 5822 5821 5821 5821 5821 5820 5820 5819 5819 5819 5820 5821 5821 5821 5821 5822 5823 5823 5822 5823 5825 5826 5827 5827 5828 5829 5829 5830 5831 5834 5837 5839 5840 5840 5840 5841 5841 5843 5846 5848 5850 5852 5855 5857 5859 5862 5863 5864 5864 5865 5866 5867 5869 5871 5873 5875 5876 5877 5878 5878 5879 5880 5880 5880 5880 5880 5881 5882 5882 5883
5831 5830 5829 5828 5827 5826 5825 5824 5824 5824 5823 5823 5823 5822 5822 5822 5821 5821 5820 5820 5820 5820 5819 5819 5818 5818 5818 5818 5819 5819 5820 5820 5820 5820 5821 5822 5822 5823 5824 5825 5825 5826 5827 5828 5828 5829 5830 5831 5833 5835 5836 5837 5838 5839 5840 5842 5845 5847 5849 5851 5853 5855 5858 5860 5861 5862 5862 5863 5864 5865 5867 5869 5871 5873 5874 5875 5876 5877 5877 5878 5879 5879 5879 5879 5880 5882 5883 5883
5829 5828 5827 5826 5826 5825 5824 5823 5823 5822 5821 5820 5821 5820 5820 5820 5819 5818 5818 5818 5819 5818 5818 5818 5818 5818 5817 5817 5817 5818 5818 5819 5819 5819 5820 5820 5820 5822 5822 5823 5823 5824 5826 5826 5826 5828 5829 5828 5829 5831 5833 5835 5836 5838 5839 5841 5844 5846 5847 5849 5852 5854 5857 5858 5859 5860 5860 5861 5863 5863 5865 5867 5869 5870 5872 5873 5875 5876 5876 5877 5877 5878 5878 5879 5880 5880 5881 5883
5827 5825 5825 5824 5824 5823 5822 5821 5821 5821 5820 5819 5818 5818 5818 5817 5817 5817 5816 5817 5817 5816 5816 5817 5817 5817 5816 5816 5816 5817 5817 5818 5818 5819 5818 5818 5818 5820 5821 5821 5822 5822 5824 5825 5825 5826 5827 5827 5826 5827 5830 5833 5835 5837 5839 5841 5842 5844 5845 5847 5850 5853 5855 5856 5857 5858 5859 5860 5861 5862 5863 5865 5866 5868 5870 5871 5872 5874 5875 5876 5876 5877 5877 5878 5879 5880 5880 5881
5825 5823 5822 5822 5821 5820 5819 5819 5820 5820 5819 5817 5816 5816 5815 5815 5815 5815 5815 5815 5815 5815 5815 5816 5816 5816 5815 5815 5815 5815 5815 5816 5817 5817 5817 5816 5817 5818 5819 5819 5820 5821 5822 5823 5824 5824 5824 5825 5824 5825 5827 5830 5833 5835 5837 5839 5841 5842 5843 5845 5848 5851 5853 5854 5855 5856 5857 5858 5859 5860 5861 5863 5864 5865 5867 5868 5870 5871 5873 5874 5875 5875 5875 5875 5877 5878 5879 5879
5822 5821 5820 5819 5819 5818 5817 5817 5817 5818 5817 5816 5814 5813 5813 5813 5813 5814 5814 5814 5814 5814 5814 5814 5815 5814 5814 5814 5814 5814 5814 5815 5815 5816 5816 5816 5816 5817 5817 5818 5819 5820 5821 5822 5822 5822 5822 5822 5823 5824 5825 5827 5830 5832 5834 5836 5837 5839 5841 5843 5846 5849 5851 5852 5853 5854 5855 5856 5857 5858 5859 5860 5862 5863 5865 5866 5868 5869 5871 5872 5873 5873 5873 5873 5874 5875 5877 5878
5819 5818 5817 5817 5816 5815 5815 5815 5815 5815 5814 5814 5813 5812 5812 5812 5812 5812 5812 5812 5812 5812 5812 5812 5813 5813 5813 5813 5813 5813 5813 5813 5814 5814 5814 5815 5815 5815 5816 5816 5817 5818 5819 5820 5821 5821 5821 5820 5821 5822 5823 5825 5827 5828 5830 5832 5834 5836 5838 5841 5844 5846 5848 5849 5851 5852 5853 5854 5855 5856 5857 5858 5860 5861 5862 5864 5865 5867 5868 5869 5870 5870 5871 5871 5872 5872 5874 5876
5816 5815 5815 5814 5813 5813 5812 5812 5812 5812 5812 5812 5811 5810 5810 5811 5810 5810 5810 5811 5811 5811 5810 5810 5811 5812 5812 5812 5812 5812 5812 5812 5812 5812 5813 5813 5813 5813 5814 5814 5816 5817 5818 5819 5819 5820 5820 5820 5820 5820 5820 5822 5825 5826 5827 5829 5831 5833 5835 5838 5841 5844 5846 5847 5848 5849 5851 5852 5853 5854 5855 5856 5857 5858 5860 5861 5863 5865 5866 5867 5868 5868 5869 5870 5870 5871 5872 5874
5812 5812 5812 5811 5810 5810 5810 5809 5809 5809 5808 5808 5808 5808 5808 5809 5808 5808 5808 5808 5808 5808 5808 5808 5808 5809 5811 5811 5811 5811 5811 5811 5811 5811 5811 5811 5812 5812 5812 5813 5814 5816 5817 5817 5818 5818 5818 5819 5819 5818 5817 5819 5822 5825 5826 5827 5829 5830 5833 5835 5838 5840 5842 5844 5845 5846 5848 5850 5851 5852 5852 5853 5855 5856 5857 5858 5860 5862 5863 5865 5865 5866 5866 5868 5868 5869 5870 5872